Stündliche Wetter Dabie

Heute, 30 Oktober, Freitag

Zeit Temperatur Niederschläge Wind Luftdruck Luftfeuchtigkeit
00:00 +8°C° 0 mm 3 m/S 756 mmHg 82%
01:00 +7°C° 0 mm 3 m/S 756 mmHg 83%
02:00 +7°C° 0 mm 3 m/S 756 mmHg 83%
03:00 +7°C° 0 mm 3 m/S 755 mmHg 84%
04:00 +7°C° 0 mm 3 m/S 755 mmHg 84%
05:00 +8°C° 0.3 mm 3 m/S 755 mmHg 87%
06:00 +8°C° 0.3 mm 3 m/S 755 mmHg 89%
07:00 +8°C° 0 mm 3 m/S 755 mmHg 91%
08:00 +8°C° 0.6 mm 3 m/S 755 mmHg 92%
09:00 +8°C° 0.6 mm 3 m/S 755 mmHg 93%
10:00 +9°C° 0.6 mm 3 m/S 754 mmHg 94%
11:00 +9°C° 1 mm 3 m/S 754 mmHg 95%
12:00 +10°C° 1 mm 3 m/S 754 mmHg 96%
13:00 +10°C° 1 mm 3 m/S 754 mmHg 97%
14:00 +11°C° 1.1 mm 3 m/S 754 mmHg 96%
15:00 +11°C° 1.1 mm 4 m/S 754 mmHg 95%
16:00 +12°C° 1.1 mm 5 m/S 754 mmHg 94%
17:00 +12°C° 0.5 mm 5 m/S 754 mmHg 94%
18:00 +12°C° 0.5 mm 5 m/S 754 mmHg 94%
19:00 +12°C° 0.5 mm 5 m/S 754 mmHg 93%
20:00 +13°C° 0.3 mm 5 m/S 755 mmHg 93%
21:00 +13°C° 0.3 mm 5 m/S 755 mmHg 93%
22:00 +13°C° 0.3 mm 5 m/S 756 mmHg 92%
23:00 +13°C° 0 mm 5 m/S 756 mmHg 93%

Morgen, 31 Oktober, Samstag

Zeit Temperatur Niederschläge Wind Luftdruck Luftfeuchtigkeit
00:00 +13°C° 0 mm 4 m/S 757 mmHg 93%
01:00 +13°C° 0 mm 4 m/S 757 mmHg 93%
02:00 +13°C° 0.1 mm 4 m/S 757 mmHg 94%
03:00 +13°C° 0.1 mm 3 m/S 757 mmHg 95%
04:00 +13°C° 0.1 mm 3 m/S 757 mmHg 96%
05:00 +13°C° 0 mm 3 m/S 758 mmHg 96%
06:00 +13°C° 0 mm 2 m/S 758 mmHg 96%
07:00 +13°C° 0 mm 2 m/S 759 mmHg 97%
08:00 +14°C° 0 mm 1 m/S 759 mmHg 96%
09:00 +14°C° 0 mm 1 m/S 759 mmHg 96%
10:00 +14°C° 0 mm 1 m/S 759 mmHg 95%
11:00 +14°C° 0 mm 1 m/S 759 mmHg 93%
12:00 +15°C° 0 mm 1 m/S 759 mmHg 91%
13:00 +15°C° 0 mm 1 m/S 759 mmHg 88%
14:00 +15°C° 0 mm 1 m/S 759 mmHg 89%
15:00 +15°C° 0 mm 1 m/S 759 mmHg 90%
16:00 +15°C° 0 mm 1 m/S 759 mmHg 91%
17:00 +14°C° 0 mm 1 m/S 759 mmHg 92%
18:00 +14°C° 0 mm 2 m/S 759 mmHg 93%
19:00 +14°C° 0 mm 2 m/S 759 mmHg 94%
20:00 +13°C° 0 mm 2 m/S 758 mmHg 95%
21:00 +12°C° 0 mm 2 m/S 758 mmHg 95%
22:00 +11°C° 0 mm 3 m/S 758 mmHg 96%
23:00 +11°C° 0 mm 3 m/S 757 mmHg 96%

übermorgen, 1 November, Sonntag

Zeit Temperatur Niederschläge Wind Luftdruck Luftfeuchtigkeit
00:00 +10°C° 0 mm 3 m/S 757 mmHg 96%
01:00 +10°C° 0 mm 3 m/S 757 mmHg 95%
02:00 +10°C° 0 mm 3 m/S 757 mmHg 95%
03:00 +10°C° 0 mm 3 m/S 756 mmHg 95%
04:00 +10°C° 0 mm 3 m/S 756 mmHg 94%
05:00 +10°C° 0 mm 3 m/S 756 mmHg 95%
06:00 +10°C° 0 mm 2 m/S 755 mmHg 95%
07:00 +9°C° 0 mm 2 m/S 755 mmHg 95%
08:00 +10°C° 0 mm 3 m/S 755 mmHg 92%
09:00 +11°C° 0 mm 3 m/S 755 mmHg 89%
10:00 +12°C° 0 mm 3 m/S 754 mmHg 86%
11:00 +12°C° 0 mm 3 m/S 754 mmHg 84%
12:00 +13°C° 0 mm 4 m/S 754 mmHg 82%
13:00 +13°C° 0 mm 4 m/S 753 mmHg 81%
14:00 +13°C° 0.8 mm 4 m/S 753 mmHg 84%
15:00 +12°C° 0.8 mm 4 m/S 753 mmHg 88%
16:00 +12°C° 0.8 mm 4 m/S 752 mmHg 92%
17:00 +12°C° 0.1 mm 4 m/S 752 mmHg 90%
18:00 +12°C° 0.1 mm 4 m/S 752 mmHg 89%
19:00 +12°C° 0.1 mm 4 m/S 752 mmHg 87%
20:00 +12°C° 0.5 mm 4 m/S 751 mmHg 89%
21:00 +12°C° 0.5 mm 4 m/S 751 mmHg 91%
22:00 +12°C° 0.5 mm 5 m/S 751 mmHg 92%
23:00 +13°C° 0.4 mm 4 m/S 751 mmHg 91%

2 November, Montag

Zeit Temperatur Niederschläge Wind Luftdruck Luftfeuchtigkeit
00:00 +13°C° 0.4 mm 4 m/S 751 mmHg 90%
01:00 +14°C° 0.4 mm 4 m/S 751 mmHg 90%
02:00 +13°C° 0 mm 3 m/S 751 mmHg 91%
03:00 +13°C° 0 mm 3 m/S 752 mmHg 93%
04:00 +14°C° 0 mm 2 m/S 752 mmHg 94%
05:00 +13°C° 0 mm 2 m/S 752 mmHg 94%
06:00 +13°C° 0 mm 2 m/S 752 mmHg 94%
07:00 +13°C° 0 mm 2 m/S 752 mmHg 94%
08:00 +13°C° 0.1 mm 3 m/S 752 mmHg 94%
09:00 +13°C° 0.1 mm 3 m/S 752 mmHg 94%
10:00 +14°C° 0.1 mm 3 m/S 752 mmHg 94%
11:00 +14°C° 0.1 mm 4 m/S 752 mmHg 92%
12:00 +15°C° 0.1 mm 4 m/S 752 mmHg 90%
13:00 +15°C° 0.1 mm 4 m/S 752 mmHg 88%
14:00 +15°C° 0.1 mm 4 m/S 751 mmHg 87%
15:00 +15°C° 0.1 mm 4 m/S 751 mmHg 87%
16:00 +17°C° 0.1 mm 4 m/S 751 mmHg 87%
17:00 +17°C° 0 mm 4 m/S 751 mmHg 87%
18:00 +17°C° 0 mm 4 m/S 751 mmHg 86%
19:00 +17°C° 0 mm 4 m/S 752 mmHg 86%
20:00 +15°C° 0 mm 4 m/S 752 mmHg 87%
21:00 +15°C° 0 mm 4 m/S 752 mmHg 87%
22:00 +15°C° 0 mm 4 m/S 752 mmHg 88%
23:00 +15°C° 0 mm 4 m/S 752 mmHg 87%

3 November, Dienstag

Zeit Temperatur Niederschläge Wind Luftdruck Luftfeuchtigkeit
00:00 +15°C° 0 mm 4 m/S 752 mmHg 86%
01:00 +17°C° 0 mm 4 m/S 753 mmHg 85%
02:00 +16°C° 0 mm 3 m/S 753 mmHg 85%
03:00 +14°C° 0 mm 3 m/S 753 mmHg 84%
04:00 +14°C° 0 mm 3 m/S 754 mmHg 84%
05:00 +13°C° 0 mm 3 m/S 755 mmHg 83%
06:00 +14°C° 0 mm 2 m/S 755 mmHg 82%
07:00 +13°C° 0 mm 2 m/S 756 mmHg 81%
08:00 +12°C° 0 mm 3 m/S 757 mmHg 76%
09:00 +12°C° 0 mm 3 m/S 757 mmHg 72%
10:00 +12°C° 0 mm 4 m/S 758 mmHg 67%
11:00 +13°C° 0 mm 4 m/S 758 mmHg 63%
12:00 +13°C° 0 mm 5 m/S 759 mmHg 59%
13:00 +13°C° 0 mm 5 m/S 759 mmHg 55%
14:00 +12°C° 0 mm 4 m/S 759 mmHg 58%
15:00 +11°C° 0 mm 3 m/S 760 mmHg 61%
16:00 +11°C° 0 mm 3 m/S 760 mmHg 64%
17:00 +10°C° 0 mm 2 m/S 760 mmHg 67%
18:00 +10°C° 0 mm 2 m/S 761 mmHg 69%
19:00 +9°C° 0 mm 2 m/S 761 mmHg 72%
20:00 +9°C° 0 mm 2 m/S 761 mmHg 73%
21:00 +10°C° 0 mm 1 m/S 761 mmHg 74%
22:00 +9°C° 0 mm 1 m/S 761 mmHg 75%
23:00 +9°C° 0 mm 1 m/S 761 mmHg 75%

4 November, Mittwoch

Zeit Temperatur Niederschläge Wind Luftdruck Luftfeuchtigkeit
00:00 +9°C° 0 mm 1 m/S 761 mmHg 76%
01:00 +8°C° 0 mm 0 m/S 761 mmHg 76%
02:00 +9°C° 0 mm 1 m/S 761 mmHg 76%
03:00 +9°C° 0 mm 1 m/S 761 mmHg 76%
04:00 +9°C° 0 mm 1 m/S 761 mmHg 76%
05:00 +9°C° 0 mm 1 m/S 761 mmHg 77%
06:00 +9°C° 0 mm 1 m/S 762 mmHg 78%
07:00 +9°C° 0 mm 1 m/S 762 mmHg 79%
08:00 +9°C° 0.1 mm 1 m/S 762 mmHg 77%
09:00 +10°C° 0.1 mm 1 m/S 763 mmHg 76%
10:00 +10°C° 0.1 mm 1 m/S 763 mmHg 74%
11:00 +11°C° 0.1 mm 1 m/S 763 mmHg 71%
12:00 +11°C° 0.1 mm 1 m/S 763 mmHg 68%
13:00 +12°C° 0.1 mm 2 m/S 764 mmHg 65%
14:00 +11°C° 0.2 mm 1 m/S 764 mmHg 69%
15:00 +11°C° 0.2 mm 1 m/S 764 mmHg 72%
16:00 +10°C° 0.2 mm 1 m/S 764 mmHg 76%
17:00 +9°C° 0 mm 1 m/S 764 mmHg 78%
18:00 +7°C° 0 mm 0 m/S 765 mmHg 81%
19:00 +7°C° 0 mm 0 m/S 765 mmHg 84%
20:00 +6°C° 0 mm 0 m/S 766 mmHg 85%
21:00 +6°C° 0 mm 0 m/S 766 mmHg 87%
22:00 +6°C° 0 mm 0 m/S 766 mmHg 88%
23:00 +5°C° 0 mm 0 m/S 767 mmHg 89%
Mehr zeigen

Wir brauchen deine Erlaubnis

Meteoprog und unser Service Anbieter werden persönliche Daten aufbewahren, so wie Cookies, Geräte Bezeichnung oder ähnliche Technologien von deinem Gerät und Prozess, so wie Persönliche Daten Inhalte und Werbungen, genauso wie social Media und den Verkehr zu analysieren.

  • Aufbewahrung und/oder Zugang zu deiner Geräte Informationen.

    Cookies, Geräte Bezeichnung oder andere Informationen, können aufbewahrt oder Zugang zu deinem Gerät erhalten, für den Grund, der oben angegeben wird.

  • Personalisierte Werbung und Inhalte, Messungen, Einblick in das Publikum und Produkt Entwicklung.

    Werbungen und Inhalte können personalisiert werden, basierend auf ein Profil. Mehr Daten können besser personalisierte Werbungen und Inhalte hinzufügen. Werbung und Inhalte können gezeigt und gemessen werden. Einblicke über das Publikum, welche die Werbung gesehen haben und den Inhalt, können abgeleitet werden. So wie Daten können genutzt werden, um es zu verbessern oder die Benutzer Erfahrung zu verbessern das System und die Software.

Wenn du “Ich stimme zu” klickst, erlaubst du uns, die Cookies zu benutzen die Geräte Bezeichnung, den Web oder ähnliche Technologien zu benutzen. Deine Settings, können in deinem Gerät bei deinem Browser geändert werden.

Für den bestimmten Zweck, berechtigten Interessen beruhen darauf, mehr als auf den Inhalt. Du kannst mehr darüber in unseren Privaten und Cookie Politik lesen.